Regional Weather Roundup
Issued by NWS

Home | Current Version | Previous Version | Text Only | Print | Product List | Glossary On
Versions: 1 2 3 4 5 6 7 8 9 10 11 12 13 14 15 16 17 18 19 20 21 22 23 24 25 26 27
000
ASUS45 KBOI 281610
RWRID

IDAHO REGIONAL WEATHER ROUNDUP
NATIONAL WEATHER SERVICE BOISE ID
1000 AM MDT TUE MAR 28 2017

NOTE: "FAIR" INDICATES FEW OR NO CLOUDS BELOW 12000 FEET
WITH NO SIGNIFICANT WEATHER AND/OR OBSTRUCTIONS TO VISIBILITY

IDZ012-014-281700-
SOUTHWEST IDAHO


CITY           SKY/WX    TMP DP  RH WIND       PRES   REMARKS
BOISE          SUNNY     40  32  73 CALM      30.27S
CALDWELL       SUNNY     43  33  68 W9        30.29S
MOUNTAIN HOME  SUNNY     44  35  71 NW15      30.25S
$$

IDZ016-017-281700-
SOUTHCENTRAL IDAHO


CITY           SKY/WX    TMP DP  RH WIND       PRES   REMARKS
BURLEY         CLOUDY    39  27  62 W14G22    30.23R WCI  31
JEROME         SUNNY     37  31  78 W13       30.23S WCI  29
TWIN FALLS     SUNNY     40  27  59 W17G25    30.24R WCI  31
$$

IDZ019>023-281700-
SOUTHEAST IDAHO


CITY           SKY/WX    TMP DP  RH WIND       PRES   REMARKS
IDAHO FALLS    MOSUNNY   36  29  75 SW5       30.19S WCI  32
POCATELLO      MOSUNNY   38  33  82 W18       30.21F WCI  28
REXBURG        SUNNY     34  32  92 CALM      30.17R
$$

IDZ006-010-011-018-031-032-281700-
CENTRAL IDAHO MOUNTAINS


CITY           SKY/WX    TMP DP  RH WIND       PRES   REMARKS
MCCALL         SUNNY     28  22  78 S3        30.20S
HAILEY         MOSUNNY   36  21  55 NW9       30.20S WCI  29
STANLEY        NOT AVBL
SALMON         CLOUDY    37  25  60 N5        30.21S WCI  34
CHALLIS        SUNNY     35  23  61 VRB3      30.20F
$$

IDZ002-004-006-007-026-281700-
NORTHERN IDAHO


CITY           SKY/WX    TMP DP  RH WIND       PRES   REMARKS
LEWISTON       PTSUNNY   42  36  79 N5        30.29R
LOWELL           N/A     42  37  82 CALM      30.33R
COEUR D`ALENE  LGT RAIN  39  36  89 W6        30.26R WCI  35
MULLAN PASS    FOG       26  26 100 VRB6      30.15R VSB 1/4 WCI  19
$$




USA.gov is the U.S. government's official web portal to all federal, state and local government web resources and services.